| time (UTC) | temp C | wind direction | speed KPH | gust KPH | rain 1hr cm | rain 24hr cm | rain mn cm | humidity % | barometer mb |
| 20260507043101 | 8 | 321 | 8.0 | 17.7 | 0.00 | 0.00 | 0.00 | 30 | 1021.6 |
| 20260507042552 | 8 | 300 | 9.7 | 17.7 | 0.00 | 0.00 | 0.00 | 30 | 1021.5 |
| 20260507042043 | 8 | 333 | 9.7 | 16.1 | 0.00 | 0.00 | 0.00 | 30 | 1021.4 |
| 20260507041552 | 8 | 317 | 8.0 | 14.5 | 0.00 | 0.00 | 0.00 | 30 | 1021.4 |
| 20260507041059 | 8 | 321 | 8.0 | 14.5 | 0.00 | 0.00 | 0.00 | 30 | 1021.4 |
| 20260507040605 | 8 | 302 | 6.4 | 14.5 | 0.00 | 0.00 | 0.00 | 29 | 1021.3 |
| 20260507040055 | 8 | 319 | 9.7 | 14.5 | 0.00 | 0.00 | 0.00 | 29 | 1021.3 |
| 20260507035604 | 8 | 313 | 9.7 | 14.5 | 0.00 | 0.00 | 0.00 | 28 | 1021.3 |
| 20260507035004 | 9 | 316 | 9.7 | 17.7 | 0.00 | 0.00 | 0.00 | 28 | 1021.2 |
| 20260507034527 | 9 | 299 | 9.7 | 22.5 | 0.00 | 0.00 | 0.00 | 28 | 1021.1 |
| 20260507034002 | 9 | 315 | 12.9 | 22.5 | 0.00 | 0.00 | 0.00 | 27 | 1021.0 |
| 20260507033511 | 9 | 295 | 14.5 | 22.5 | 0.00 | 0.00 | 0.00 | 27 | 1020.9 |
| 20260507033006 | 9 | 304 | 14.5 | 20.9 | 0.00 | 0.00 | 0.00 | 27 | 1020.8 |
| 20260507032509 | 10 | 317 | 14.5 | 22.5 | 0.00 | 0.00 | 0.00 | 27 | 1020.8 |
| 20260507032102 | 10 | 320 | 14.5 | 22.5 | 0.00 | 0.00 | 0.00 | 26 | 1020.8 |
| 20260507031555 | 10 | 295 | 16.1 | 22.5 | 0.00 | 0.00 | 0.00 | 26 | 1020.8 |
| 20260507031101 | 10 | 321 | 11.3 | 20.9 | 0.00 | 0.00 | 0.00 | 25 | 1020.7 |
| 20260507030551 | 10 | 319 | 12.9 | 22.5 | 0.00 | 0.00 | 0.00 | 25 | 1020.6 |
| 20260507030058 | 10 | 311 | 14.5 | 22.5 | 0.00 | 0.00 | 0.00 | 24 | 1020.6 |
| 20260507025548 | 10 | 326 | 12.9 | 22.5 | 0.00 | 0.00 | 0.00 | 24 | 1020.5 |
| 20260507025039 | 11 | 317 | 14.5 | 24.1 | 0.00 | 0.00 | 0.00 | 23 | 1020.5 |
| 20260507024550 | 11 | 329 | 16.1 | 24.1 | 0.00 | 0.00 | 0.00 | 23 | 1020.5 |
| 20260507024038 | 11 | 329 | 16.1 | 25.7 | 0.00 | 0.00 | 0.00 | 23 | 1020.3 |
| 20260507023543 | 11 | 295 | 17.7 | 25.7 | 0.00 | 0.00 | 0.00 | 22 | 1020.4 |
| 20260507023048 | 11 | 342 | 12.9 | 24.1 | 0.00 | 0.00 | 0.00 | 22 | 1020.3 |
| 20260507022557 | 11 | 271 | 16.1 | 29.0 | 0.00 | 0.00 | 0.00 | 22 | 1020.4 |
| 20260507022047 | 11 | 317 | 16.1 | 32.2 | 0.00 | 0.00 | 0.00 | 22 | 1020.1 |
| 20260507021553 | 11 | 311 | 16.1 | 29.0 | 0.00 | 0.00 | 0.00 | 22 | 1020.0 |
| 20260507021100 | 11 | 322 | 17.7 | 29.0 | 0.00 | 0.00 | 0.00 | 21 | 1019.9 |
| 20260507020502 | 12 | 317 | 17.7 | 27.4 | 0.00 | 0.00 | 0.00 | 21 | 1019.8 |
| 20260507020006 | 12 | 321 | 19.3 | 25.7 | 0.00 | 0.00 | 0.00 | 22 | 1019.9 |
| 20260507015559 | 12 | 310 | 17.7 | 27.4 | 0.00 | 0.00 | 0.00 | 21 | 1019.9 |
| 20260507015004 | 12 | 317 | 17.7 | 27.4 | 0.00 | 0.00 | 0.00 | 22 | 1019.9 |
| 20260507014612 | 12 | 299 | 12.9 | 27.4 | 0.00 | 0.00 | 0.00 | 22 | 1019.8 |
| 20260507014103 | 13 | 315 | 16.1 | 27.4 | 0.00 | 0.00 | 0.00 | 22 | 1019.8 |
| 20260507013505 | 13 | 330 | 12.9 | 25.7 | 0.00 | 0.00 | 0.00 | 22 | 1019.7 |
| 20260507013103 | 13 | 333 | 17.7 | 24.1 | 0.00 | 0.00 | 0.00 | 22 | 1019.6 |
| 20260507012508 | 13 | 321 | 14.5 | 29.0 | 0.00 | 0.00 | 0.00 | 22 | 1019.5 |
| 20260507012100 | 13 | 316 | 16.1 | 29.0 | 0.00 | 0.00 | 0.00 | 22 | 1019.5 |
| 20260507011504 | 13 | 333 | 14.5 | 30.6 | 0.00 | 0.00 | 0.00 | 22 | 1019.3 |
| 20260507011056 | 13 | 340 | 16.1 | 30.6 | 0.00 | 0.00 | 0.00 | 22 | 1019.4 |
| 20260507010547 | 13 | 340 | 19.3 | 32.2 | 0.00 | 0.00 | 0.00 | 21 | 1019.3 |
| 20260507010104 | 13 | 355 | 20.9 | 32.2 | 0.00 | 0.00 | 0.00 | 21 | 1019.2 |
| 20260507005545 | 14 | 325 | 17.7 | 32.2 | 0.00 | 0.00 | 0.00 | 22 | 1019.1 |
| 20260507005053 | 14 | 331 | 20.9 | 32.2 | 0.00 | 0.00 | 0.00 | 21 | 1019.1 |
| 20260507004612 | 14 | 323 | 22.5 | 32.2 | 0.00 | 0.00 | 0.00 | 21 | 1019.0 |
| 20260507004105 | 14 | 342 | 20.9 | 35.4 | 0.00 | 0.00 | 0.00 | 21 | 1018.9 |
| 20260507003555 | 14 | 337 | 22.5 | 35.4 | 0.00 | 0.00 | 0.00 | 22 | 1018.9 |
| 20260507003105 | 14 | 15 | 19.3 | 33.8 | 0.00 | 0.00 | 0.00 | 22 | 1018.9 |
| 20260507002555 | 14 | 319 | 22.5 | 32.2 | 0.00 | 0.00 | 0.00 | 22 | 1019.0 |
| 20260507002101 | 14 | 355 | 20.9 | 33.8 | 0.00 | 0.00 | 0.00 | 21 | 1019.0 |
| 20260507001555 | 14 | 311 | 20.9 | 35.4 | 0.00 | 0.00 | 0.00 | 20 | 1018.9 |
| 20260507001043 | 15 | 307 | 22.5 | 33.8 | 0.00 | 0.00 | 0.00 | 18 | 1018.8 |
| 20260507000550 | 15 | 324 | 17.7 | 38.6 | 0.00 | 0.00 | 0.00 | 21 | 1018.7 |
| 20260507000057 | 15 | 348 | 24.1 | 38.6 | 0.00 | 0.00 | 0.00 | 21 | 1018.6 |
| 20260506235605 | 15 | 294 | 24.1 | 43.5 | 0.00 | 0.00 | 0.00 | 21 | 1018.6 |
| 20260506235054 | 15 | 340 | 25.7 | 43.5 | 0.00 | 0.00 | 0.00 | 22 | 1018.5 |
| 20260506234603 | 15 | 308 | 27.4 | 41.8 | 0.00 | 0.00 | 0.00 | 20 | 1018.4 |
| 20260506234055 | 15 | 340 | 25.7 | 40.2 | 0.00 | 0.00 | 0.00 | 19 | 1018.3 |
| 20260506233600 | 15 | 333 | 22.5 | 41.8 | 0.00 | 0.00 | 0.00 | 22 | 1018.2 |
| 20260506233055 | 15 | 340 | 25.7 | 48.3 | 0.00 | 0.00 | 0.00 | 21 | 1018.2 |
| 20260506232555 | 15 | 349 | 29.0 | 48.3 | 0.00 | 0.00 | 0.00 | 22 | 1018.2 |
| 20260506232102 | 15 | 321 | 22.5 | 40.2 | 0.00 | 0.00 | 0.00 | 23 | 1018.3 |
| 20260506231553 | 15 | 336 | 25.7 | 41.8 | 0.00 | 0.00 | 0.00 | 22 | 1018.2 |
| 20260506231105 | 15 | 303 | 25.7 | 41.8 | 0.00 | 0.00 | 0.00 | 23 | 1018.1 |
| 20260506230552 | 15 | 344 | 27.4 | 40.2 | 0.00 | 0.00 | 0.00 | 24 | 1018.1 |
| 20260506230058 | 15 | 319 | 22.5 | 41.8 | 0.00 | 0.00 | 0.00 | 23 | 1018.1 |
| 20260506225550 | 15 | 15 | 19.3 | 41.8 | 0.00 | 0.00 | 0.00 | 25 | 1018.0 |
| 20260506225039 | 15 | 327 | 25.7 | 43.5 | 0.00 | 0.00 | 0.00 | 25 | 1018.0 |
| 20260506224547 | 15 | 324 | 24.1 | 43.5 | 0.00 | 0.00 | 0.00 | 25 | 1017.9 |
| 20260506224039 | 15 | 360 | 24.1 | 41.8 | 0.00 | 0.00 | 0.00 | 24 | 1017.9 |
| 20260506223545 | 16 | 297 | 20.9 | 41.8 | 0.00 | 0.00 | 0.00 | 21 | 1017.6 |
| 20260506223049 | 16 | 311 | 22.5 | 45.1 | 0.00 | 0.00 | 0.00 | 19 | 1017.8 |
| 20260506222558 | 16 | 313 | 27.4 | 43.5 | 0.00 | 0.00 | 0.00 | 20 | 1017.6 |
| 20260506222047 | 16 | 338 | 24.1 | 38.6 | 0.00 | 0.00 | 0.00 | 24 | 1017.8 |
| 20260506221555 | 15 | 307 | 22.5 | 38.6 | 0.00 | 0.00 | 0.00 | 24 | 1017.7 |
| 20260506221100 | 15 | 311 | 25.7 | 37.0 | 0.00 | 0.00 | 0.00 | 26 | 1017.7 |
| 20260506220502 | 15 | 348 | 24.1 | 37.0 | 0.00 | 0.00 | 0.00 | 26 | 1017.7 |
| 20260506220057 | 15 | 317 | 22.5 | 40.2 | 0.00 | 0.00 | 0.00 | 28 | 1017.7 |
| 20260506215604 | 16 | 308 | 20.9 | 40.2 | 0.00 | 0.00 | 0.00 | 28 | 1017.8 |
| 20260506215054 | 16 | 342 | 22.5 | 41.8 | 0.00 | 0.00 | 0.00 | 26 | 1017.8 |
| 20260506214551 | 15 | 301 | 27.4 | 49.9 | 0.00 | 0.00 | 0.00 | 25 | 1017.7 |
| 20260506214052 | 15 | 327 | 27.4 | 49.9 | 0.00 | 0.00 | 0.00 | 25 | 1017.7 |
| 20260506213558 | 15 | 302 | 19.3 | 37.0 | 0.00 | 0.00 | 0.00 | 26 | 1017.7 |
| 20260506213104 | 15 | 293 | 24.1 | 46.7 | 0.00 | 0.00 | 0.00 | 26 | 1017.8 |
| 20260506212555 | 15 | 296 | 29.0 | 46.7 | 0.00 | 0.00 | 0.00 | 27 | 1017.7 |
| 20260506212046 | 14 | 306 | 25.7 | 41.8 | 0.00 | 0.00 | 0.00 | 30 | 1017.7 |
| 20260506211553 | 13 | 332 | 30.6 | 45.1 | 0.00 | 0.00 | 0.00 | 30 | 1017.8 |
| 20260506211043 | 13 | 320 | 27.4 | 45.1 | 0.00 | 0.00 | 0.00 | 30 | 1017.8 |
| 20260506210532 | 13 | 315 | 22.5 | 38.6 | 0.00 | 0.00 | 0.00 | 30 | 1017.8 |
| 20260506210041 | 13 | 319 | 27.4 | 38.6 | 0.00 | 0.00 | 0.00 | 32 | 1017.8 |
| 20260506205547 | 13 | 311 | 19.3 | 38.6 | 0.00 | 0.00 | 0.00 | 32 | 1017.7 |
| 20260506205058 | 13 | 300 | 24.1 | 38.6 | 0.00 | 0.00 | 0.00 | 34 | 1017.7 |
| 20260506204550 | 13 | 291 | 17.7 | 35.4 | 0.00 | 0.00 | 0.00 | 35 | 1017.8 |
| 20260506204052 | 13 | 296 | 16.1 | 33.8 | 0.00 | 0.00 | 0.00 | 36 | 1017.7 |
| 20260506203546 | 13 | 302 | 22.5 | 33.8 | 0.00 | 0.00 | 0.00 | 35 | 1017.8 |
| 20260506203033 | 13 | 319 | 19.3 | 33.8 | 0.00 | 0.00 | 0.00 | 35 | 1017.8 |
| 20260506202541 | 14 | 306 | 20.9 | 40.2 | 0.00 | 0.00 | 0.00 | 34 | 1017.9 |
| 20260506202047 | 14 | 297 | 16.1 | 37.0 | 0.00 | 0.00 | 0.00 | 34 | 1017.7 |
| 20260506201555 | 13 | 291 | 22.5 | 37.0 | 0.00 | 0.00 | 0.00 | 35 | 1017.7 |
| 20260506201100 | 13 | 330 | 24.1 | 35.4 | 0.00 | 0.00 | 0.00 | 35 | 1017.7 |
| 20260506200504 | 13 | 311 | 24.1 | 37.0 | 0.00 | 0.00 | 0.00 | 35 | 1017.8 |
| 20260506200105 | 14 | 315 | 22.5 | 37.0 | 0.00 | 0.00 | 0.00 | 34 | 1017.8 |
| 20260506195604 | 14 | 285 | 24.1 | 41.8 | 0.00 | 0.00 | 0.00 | 35 | 1017.6 |
| 20260506195057 | 14 | 312 | 27.4 | 41.8 | 0.00 | 0.00 | 0.00 | 33 | 1017.6 |
| 20260506194608 | 14 | 319 | 29.0 | 45.1 | 0.00 | 0.00 | 0.00 | 31 | 1017.6 |
| 20260506194004 | 14 | 322 | 30.6 | 45.1 | 0.00 | 0.00 | 0.00 | 29 | 1017.6 |
| 20260506193559 | 15 | 325 | 25.7 | 45.1 | 0.00 | 0.00 | 0.00 | 31 | 1017.7 |
| 20260506193002 | 15 | 287 | 22.5 | 53.1 | 0.00 | 0.00 | 0.00 | 30 | 1017.6 |
| 20260506192557 | 14 | 339 | 27.4 | 53.1 | 0.00 | 0.00 | 0.00 | 34 | 1017.5 |
| 20260506192051 | 14 | 302 | 24.1 | 41.8 | 0.00 | 0.00 | 0.00 | 33 | 1017.4 |
| 20260506191607 | 14 | 325 | 24.1 | 41.8 | 0.00 | 0.00 | 0.00 | 34 | 1017.6 |
| 20260506191105 | 14 | 333 | 25.7 | 41.8 | 0.00 | 0.00 | 0.00 | 35 | 1017.5 |
| 20260506190505 | 13 | 309 | 20.9 | 38.6 | 0.00 | 0.00 | 0.00 | 39 | 1017.5 |
| 20260506190100 | 12 | 323 | 24.1 | 45.1 | 0.00 | 0.00 | 0.00 | 42 | 1017.7 |
| 20260506185501 | 12 | 310 | 24.1 | 37.0 | 0.00 | 0.00 | 0.00 | 44 | 1017.8 |
| 20260506185058 | 11 | 360 | 22.5 | 37.0 | 0.00 | 0.00 | 0.00 | 46 | 1017.9 |
| 20260506184551 | 10 | 349 | 25.7 | 45.1 | 0.00 | 0.00 | 0.00 | 49 | 1018.0 |
| 20260506184056 | 10 | 320 | 25.7 | 46.7 | 0.00 | 0.00 | 0.00 | 52 | 1018.1 |
| 20260506183602 | 10 | 338 | 27.4 | 46.7 | 0.00 | 0.00 | 0.00 | 52 | 1018.4 |
| 20260506183006 | 10 | 341 | 32.2 | 53.1 | 0.00 | 0.00 | 0.00 | 51 | 1018.6 |
| 20260506182602 | 10 | 316 | 32.2 | 56.3 | 0.00 | 0.00 | 0.00 | 50 | 1018.6 |
| 20260506182002 | 10 | 344 | 33.8 | 57.9 | 0.00 | 0.00 | 0.00 | 50 | 1018.4 |
| 20260506181602 | 10 | 5 | 32.2 | 57.9 | 0.00 | 0.00 | 0.00 | 51 | 1018.5 |
| 20260506181104 | 10 | 338 | 35.4 | 53.1 | 0.00 | 0.00 | 0.00 | 51 | 1018.3 |
| 20260506180507 | 11 | 342 | 29.0 | 56.3 | 0.00 | 0.00 | 0.00 | 50 | 1018.2 |
| 20260506180116 | 12 | 323 | 32.2 | 53.1 | 0.00 | 0.00 | 0.00 | 48 | 1018.1 |
| 20260506175558 | 11 | 319 | 35.4 | 53.1 | 0.00 | 0.00 | 0.00 | 48 | 1017.9 |
| 20260506175045 | 12 | 311 | 33.8 | 54.7 | 0.00 | 0.00 | 0.00 | 48 | 1017.9 |
| 20260506174553 | 12 | 329 | 24.1 | 57.9 | 0.00 | 0.00 | 0.00 | 44 | 1017.8 |
| 20260506174059 | 12 | 306 | 35.4 | 57.9 | 0.00 | 0.00 | 0.00 | 43 | 1017.5 |
| 20260506173502 | 13 | 283 | 22.5 | 46.7 | 0.00 | 0.00 | 0.00 | 36 | 1017.4 |
| 20260506173134 | 14 | 282 | 20.9 | 37.0 | 0.00 | 0.00 | 0.00 | 35 | 1016.9 |
| 20260506172500 | 15 | 279 | 19.3 | 33.8 | 0.00 | 0.00 | 0.00 | 34 | 1017.0 |
| 20260506172056 | 14 | 289 | 17.7 | 33.8 | 0.00 | 0.00 | 0.00 | 35 | 1016.8 |
| 20260506171547 | 13 | 300 | 12.9 | 24.1 | 0.00 | 0.00 | 0.00 | 37 | 1016.9 |
| 20260506171055 | 14 | 273 | 12.9 | 19.3 | 0.00 | 0.00 | 0.00 | 38 | 1016.9 |
| 20260506170548 | 14 | 278 | 8.0 | 22.5 | 0.00 | 0.00 | 0.00 | 37 | 1016.9 |
| 20260506170052 | 14 | 226 | 11.3 | 22.5 | 0.00 | 0.00 | 0.00 | 38 | 1016.8 |
| 20260506165542 | 13 | 236 | 8.0 | 25.7 | 0.00 | 0.00 | 0.00 | 39 | 1016.9 |
| 20260506165033 | 13 | 299 | 17.7 | 29.0 | 0.00 | 0.00 | 0.00 | 40 | 1016.8 |
| 20260506164540 | 13 | 281 | 12.9 | 29.0 | 0.00 | 0.00 | 0.00 | 40 | 1016.8 |
| 20260506164048 | 13 | 334 | 12.9 | 20.9 | 0.00 | 0.00 | 0.00 | 40 | 1016.8 |
| 20260506163555 | 12 | 229 | 12.9 | 30.6 | 0.00 | 0.00 | 0.00 | 41 | 1017.0 |
| 20260506163047 | 12 | 296 | 11.3 | 30.6 | 0.00 | 0.00 | 0.00 | 43 | 1016.9 |
| 20260506162555 | 12 | 242 | 9.7 | 16.1 | 0.00 | 0.00 | 0.00 | 44 | 1017.1 |
| 20260506162059 | 12 | 292 | 6.4 | 14.5 | 0.00 | 0.00 | 0.00 | 45 | 1017.0 |
| 20260506161502 | 12 | 242 | 6.4 | 17.7 | 0.00 | 0.00 | 0.00 | 46 | 1017.1 |
| 20260506161058 | 11 | 242 | 9.7 | 19.3 | 0.00 | 0.00 | 0.00 | 47 | 1017.1 |
| 20260506160502 | 11 | 231 | 12.9 | 20.9 | 0.00 | 0.00 | 0.00 | 46 | 1017.2 |
| 20260506160057 | 11 | 296 | 6.4 | 20.9 | 0.00 | 0.00 | 0.00 | 47 | 1017.2 |
| 20260506155604 | 11 | 257 | 11.3 | 20.9 | 0.00 | 0.00 | 0.00 | 46 | 1017.2 |
| 20260506155055 | 11 | 240 | 11.3 | 20.9 | 0.00 | 0.00 | 0.00 | 46 | 1017.2 |
| 20260506154601 | 10 | 267 | 8.0 | 19.3 | 0.00 | 0.00 | 0.00 | 48 | 1017.1 |
| 20260506154004 | 10 | 259 | 3.2 | 12.9 | 0.00 | 0.00 | 0.00 | 49 | 1017.1 |
| 20260506153601 | 10 | 301 | 1.6 | 12.9 | 0.00 | 0.00 | 0.00 | 49 | 1017.1 |
| 20260506153104 | 10 | 313 | 4.8 | 16.1 | 0.00 | 0.00 | 0.00 | 48 | 1017.1 |
| 20260506152555 | 11 | 286 | 8.0 | 16.1 | 0.00 | 0.00 | 0.00 | 47 | 1017.1 |
| 20260506152045 | 10 | 259 | 1.6 | 12.9 | 0.00 | 0.00 | 0.00 | 49 | 1017.0 |
| 20260506151553 | 11 | 290 | 3.2 | 9.7 | 0.00 | 0.00 | 0.00 | 48 | 1016.9 |
| 20260506151059 | 11 | 252 | 4.8 | 9.7 | 0.00 | 0.00 | 0.00 | 48 | 1016.8 |
| 20260506150502 | 11 | 250 | 3.2 | 11.3 | 0.00 | 0.00 | 0.00 | 48 | 1016.9 |
| 20260506150100 | 11 | 205 | 3.2 | 11.3 | 0.00 | 0.00 | 0.00 | 48 | 1016.7 |
| 20260506145500 | 11 | 284 | 1.6 | 8.0 | 0.00 | 0.00 | 0.00 | 49 | 1016.8 |
| 20260506145056 | 11 | 200 | 3.2 | 8.0 | 0.00 | 0.00 | 0.00 | 50 | 1016.9 |
| 20260506144609 | 10 | 211 | 4.8 | 8.0 | 0.00 | 0.00 | 0.00 | 52 | 1016.9 |
| 20260506144053 | 10 | 208 | 3.2 | 6.4 | 0.00 | 0.00 | 0.00 | 52 | 1016.9 |
| 20260506143543 | 9 | 235 | 1.6 | 6.4 | 0.00 | 0.00 | 0.00 | 54 | 1016.9 |
| 20260506143052 | 9 | 147 | 1.6 | 6.4 | 0.00 | 0.00 | 0.00 | 56 | 1016.8 |
| 20260506142557 | 8 | 161 | 3.2 | 6.4 | 0.00 | 0.00 | 0.00 | 57 | 1016.8 |
| 20260506142106 | 8 | 134 | 3.2 | 9.7 | 0.00 | 0.00 | 0.00 | 58 | 1016.8 |
| 20260506141506 | 8 | 163 | 4.8 | 11.3 | 0.00 | 0.00 | 0.00 | 59 | 1016.8 |
| 20260506141014 | 7 | 119 | 4.8 | 11.3 | 0.00 | 0.00 | 0.00 | 61 | 1016.8 |
| 20260506140520 | 7 | 154 | 8.0 | 11.3 | 0.00 | 0.00 | 0.00 | 62 | 1016.9 |
| 20260506140059 | 7 | 196 | 6.4 | 11.3 | 0.00 | 0.00 | 0.00 | 62 | 1016.9 |
| 20260506135501 | 7 | 127 | 6.4 | 11.3 | 0.00 | 0.00 | 0.00 | 62 | 1016.9 |
| 20260506135012 | 7 | 117 | 3.2 | 12.9 | 0.00 | 0.00 | 0.00 | 64 | 1016.7 |
| 20260506134515 | 7 | 117 | 4.8 | 11.3 | 0.00 | 0.00 | 0.00 | 65 | 1016.6 |
| 20260506134004 | 6 | 131 | 4.8 | 9.7 | 0.00 | 0.00 | 0.00 | 66 | 1016.7 |
| 20260506133512 | 6 | 131 | 4.8 | 9.7 | 0.00 | 0.00 | 0.00 | 68 | 1016.7 |
| 20260506133002 | 6 | 119 | 3.2 | 9.7 | 0.00 | 0.00 | 0.00 | 69 | 1016.6 |
| 20260506132557 | 6 | 127 | 3.2 | 9.7 | 0.00 | 0.00 | 0.00 | 70 | 1016.6 |
| 20260506132001 | 6 | 113 | 4.8 | 9.7 | 0.00 | 0.00 | 0.00 | 70 | 1016.4 |
| 20260506131558 | 6 | 112 | 3.2 | 6.4 | 0.00 | 0.00 | 0.00 | 71 | 1016.5 |
| 20260506131103 | 6 | 110 | 3.2 | 4.8 | 0.00 | 0.00 | 0.00 | 71 | 1016.5 |
| 20260506130506 | 5 | 119 | 1.6 | 4.8 | 0.00 | 0.00 | 0.00 | 72 | 1016.3 |
| 20260506130017 | 5 | 113 | 3.2 | 4.8 | 0.00 | 0.00 | 0.00 | 72 | 1016.3 |
| 20260506125504 | 5 | 119 | 3.2 | 4.8 | 0.00 | 0.00 | 0.00 | 72 | 1016.2 |
| 20260506125011 | 5 | 119 | 1.6 | 4.8 | 0.00 | 0.00 | 0.00 | 73 | 1016.2 |
| 20260506124501 | 5 | 119 | 1.6 | 4.8 | 0.00 | 0.00 | 0.00 | 73 | 1016.2 |
| 20260506124007 | 5 | 116 | 1.6 | 4.8 | 0.00 | 0.00 | 0.00 | 73 | 1016.1 |
| 20260506123601 | 5 | 102 | 1.6 | 4.8 | 0.00 | 0.00 | 0.00 | 73 | 1016.1 |
| 20260506123052 | 5 | 126 | 1.6 | 3.2 | 0.00 | 0.00 | 0.00 | 74 | 1016.0 |
| 20260506122600 | 5 | 126 | 1.6 | 4.8 | 0.00 | 0.00 | 0.00 | 74 | 1015.9 |
| 20260506122050 | 5 | 126 | 1.6 | 4.8 | 0.00 | 0.00 | 0.00 | 74 | 1015.9 |
| 20260506121539 | 5 | 109 | 3.2 | 4.8 | 0.00 | 0.00 | 0.00 | 74 | 1015.9 |
| 20260506121046 | 5 | 109 | 1.6 | 3.2 | 0.00 | 0.00 | 0.00 | 74 | 1015.8 |
| 20260506120552 | 5 | 109 | 1.6 | 3.2 | 0.00 | 0.00 | 0.00 | 73 | 1015.8 |
| 20260506120115 | 5 | 109 | 0.0 | 3.2 | 0.00 | 0.00 | 0.00 | 73 | 1015.8 |
| 20260506115553 | 5 | 109 | 0.0 | 0.0 | 0.00 | 0.00 | 0.00 | 73 | 1015.9 |
| 20260506115059 | 5 | 109 | 0.0 | 0.0 | 0.00 | 0.00 | 0.00 | 73 | 1015.8 |
| 20260506114549 | 5 | 109 | 0.0 | 3.2 | 0.00 | 0.00 | 0.00 | 74 | 1015.8 |
| 20260506114038 | 4 | 109 | 0.0 | 3.2 | 0.00 | 0.00 | 0.00 | 74 | 1015.8 |
| 20260506113545 | 4 | 109 | 0.0 | 3.2 | 0.00 | 0.00 | 0.00 | 75 | 1015.8 |
| 20260506113036 | 4 | 109 | 1.6 | 3.2 | 0.00 | 0.00 | 0.00 | 75 | 1015.8 |
| 20260506112540 | 4 | 109 | 1.6 | 3.2 | 0.00 | 0.00 | 0.00 | 75 | 1015.7 |
| 20260506112046 | 4 | 109 | 3.2 | 3.2 | 0.00 | 0.00 | 0.00 | 74 | 1015.7 |
| 20260506111538 | 4 | 109 | 1.6 | 3.2 | 0.00 | 0.00 | 0.00 | 74 | 1015.6 |
| 20260506111048 | 4 | 109 | 1.6 | 4.8 | 0.00 | 0.00 | 0.00 | 74 | 1015.5 |
| 20260506110551 | 4 | 109 | 3.2 | 4.8 | 0.00 | 0.00 | 0.00 | 74 | 1015.4 |
| 20260506110100 | 4 | 109 | 3.2 | 4.8 | 0.00 | 0.00 | 0.00 | 74 | 1015.4 |
| 20260506105551 | 4 | 109 | 3.2 | 4.8 | 0.00 | 0.00 | 0.00 | 74 | 1015.4 |
| 20260506105102 | 4 | 109 | 3.2 | 4.8 | 0.00 | 0.00 | 0.00 | 72 | 1015.4 |
| 20260506104604 | 4 | 111 | 3.2 | 4.8 | 0.00 | 0.00 | 0.00 | 72 | 1015.3 |
| 20260506104014 | 5 | 126 | 3.2 | 4.8 | 0.00 | 0.00 | 0.00 | 72 | 1015.4 |
| 20260506103604 | 5 | 126 | 1.6 | 6.4 | 0.00 | 0.00 | 0.00 | 73 | 1015.3 |
| 20260506103006 | 5 | 126 | 3.2 | 6.4 | 0.00 | 0.00 | 0.00 | 73 | 1015.3 |
| 20260506102602 | 5 | 129 | 3.2 | 6.4 | 0.00 | 0.00 | 0.00 | 73 | 1015.3 |
| 20260506102006 | 5 | 132 | 3.2 | 6.4 | 0.00 | 0.00 | 0.00 | 73 | 1015.3 |
| 20260506101601 | 5 | 131 | 3.2 | 6.4 | 0.00 | 0.00 | 0.00 | 73 | 1015.3 |
| 20260506101002 | 5 | 111 | 3.2 | 6.4 | 0.00 | 0.00 | 0.00 | 73 | 1015.3 |
| 20260506100513 | 5 | 109 | 3.2 | 4.8 | 0.00 | 0.00 | 0.00 | 73 | 1015.3 |
| 20260506100105 | 5 | 112 | 3.2 | 6.4 | 0.00 | 0.00 | 0.00 | 73 | 1015.3 |
| 20260506095503 | 5 | 115 | 4.8 | 6.4 | 0.00 | 0.00 | 0.00 | 73 | 1015.2 |
| 20260506095057 | 5 | 126 | 3.2 | 6.4 | 0.00 | 0.00 | 0.00 | 72 | 1015.3 |
| 20260506094615 | 5 | 110 | 3.2 | 4.8 | 0.00 | 0.00 | 0.00 | 72 | 1015.4 |
| 20260506094100 | 5 | 134 | 3.2 | 4.8 | 0.00 | 0.00 | 0.00 | 72 | 1015.3 |
| 20260506093602 | 5 | 129 | 1.6 | 3.2 | 0.00 | 0.00 | 0.00 | 71 | 1015.3 |
| 20260506093004 | 5 | 159 | 0.0 | 3.2 | 0.00 | 0.00 | 0.00 | 70 | 1015.3 |
| 20260506092559 | 5 | 159 | 1.6 | 3.2 | 0.00 | 0.00 | 0.00 | 70 | 1015.4 |
| 20260506092105 | 5 | 159 | 1.6 | 3.2 | 0.00 | 0.00 | 0.00 | 70 | 1015.3 |
| 20260506091556 | 6 | 159 | 0.0 | 3.2 | 0.00 | 0.00 | 0.00 | 69 | 1015.4 |
| 20260506091048 | 6 | 159 | 1.6 | 3.2 | 0.00 | 0.00 | 0.00 | 69 | 1015.3 |
| 20260506090554 | 6 | 159 | 1.6 | 3.2 | 0.00 | 0.00 | 0.00 | 69 | 1015.4 |
| 20260506085503 | 6 | 155 | 3.2 | 4.8 | 0.00 | 0.00 | 0.00 | 67 | 1015.4 |
| 20260506085102 | 6 | 144 | 3.2 | 4.8 | 0.00 | 0.00 | 0.00 | 67 | 1015.4 |
| 20260506084605 | 6 | 161 | 3.2 | 4.8 | 0.00 | 0.00 | 0.00 | 66 | 1015.3 |
| 20260506084056 | 6 | 167 | 1.6 | 4.8 | 0.00 | 0.00 | 0.00 | 66 | 1015.3 |
| 20260506083550 | 6 | 153 | 3.2 | 4.8 | 0.00 | 0.00 | 0.00 | 65 | 1015.3 |
| 20260506083100 | 6 | 153 | 1.6 | 4.8 | 0.00 | 0.00 | 0.00 | 65 | 1015.3 |
| 20260506082602 | 7 | 153 | 3.2 | 4.8 | 0.00 | 0.00 | 0.00 | 65 | 1015.3 |
| 20260506082103 | 7 | 149 | 1.6 | 4.8 | 0.00 | 0.00 | 0.00 | 64 | 1015.4 |
| 20260506081554 | 7 | 153 | 1.6 | 3.2 | 0.00 | 0.00 | 0.00 | 64 | 1015.4 |
| 20260506081046 | 7 | 153 | 1.6 | 3.2 | 0.00 | 0.00 | 0.00 | 63 | 1015.4 |
| 20260506080552 | 7 | 157 | 1.6 | 4.8 | 0.00 | 0.00 | 0.00 | 63 | 1015.4 |
| 20260506080109 | 7 | 164 | 1.6 | 4.8 | 0.00 | 0.00 | 0.00 | 63 | 1015.5 |
| 20260506073103 | 7 | 207 | 6.4 | 9.7 | 0.00 | 0.00 | 0.00 | 61 | 1015.6 |
| 20260506072557 | 7 | 190 | 4.8 | 9.7 | 0.00 | 0.00 | 0.00 | 61 | 1015.7 |
| 20260506072104 | 7 | 183 | 3.2 | 9.7 | 0.00 | 0.00 | 0.00 | 61 | 1015.7 |
| 20260506071505 | 7 | 195 | 6.4 | 9.7 | 0.00 | 0.00 | 0.00 | 61 | 1015.6 |
| 20260506071009 | 8 | 192 | 4.8 | 9.7 | 0.00 | 0.00 | 0.00 | 61 | 1015.6 |
| 20260506070516 | 8 | 199 | 1.6 | 6.4 | 0.00 | 0.00 | 0.00 | 60 | 1015.6 |
| 20260506062059 | 8 | 200 | 3.2 | 9.7 | 0.00 | 0.00 | 0.00 | 58 | 1015.5 |
| 20260506061502 | 8 | 182 | 3.2 | 9.7 | 0.00 | 0.00 | 0.00 | 58 | 1015.4 |
| 20260506061058 | 8 | 188 | 4.8 | 9.7 | 0.00 | 0.00 | 0.00 | 58 | 1015.3 |
| 20260506060604 | 8 | 208 | 0.0 | 9.7 | 0.00 | 0.00 | 0.00 | 58 | 1015.4 |
| 20260506051003 | 9 | 204 | 4.8 | 9.7 | 0.00 | 0.00 | 0.00 | 60 | 1015.2 |
| 20260506050512 | 9 | 180 | 4.8 | 9.7 | 0.00 | 0.00 | 0.00 | 60 | 1015.2 |
| 20260506050109 | 9 | 122 | 1.6 | 4.8 | 0.00 | 0.00 | 0.00 | 60 | 1015.1 |
| 20260506045056 | 9 | 113 | 1.6 | 4.8 | 0.00 | 0.00 | 0.00 | 59 | 1014.8 |
| 20260506044603 | 9 | 134 | 1.6 | 4.8 | 0.00 | 0.00 | 0.00 | 58 | 1014.9 |
| 20260506044005 | 9 | 159 | 0.0 | 9.7 | 0.00 | 0.00 | 0.00 | 58 | 1014.9 |
| 20260506043601 | 9 | 149 | 4.8 | 9.7 | 0.00 | 0.00 | 0.00 | 58 | 1014.9 |